Location: Ferris
(32.5340°N, 96.6656°W)
Time: 23:54:45
(UTC+00:00)

Cosmos 1354 Rocket - Pass Details

Date: 23 May 2026
Orbit: 761 x 778 km, 74.0° (Epoch: 7 June)

Event Time Altitude Azimuth Distance (km) Brightness Sun altitude
Rises 03:50:49 0° 339° (NNW) 3,228 8.4 -25.6°
Reaches altitude 10° 03:53:13 10° 336° (NNW) 2,297 7.4 -25.9°
Maximum altitude 03:58:21 64° 256° (WSW) 842 4.2 -26.6°
Enters shadow 03:58:43 62° 232° (SW) 855 4.1 -26.6°
